sat.trackr.live / text

‹ back to catalog

ZHUHAI-1 OHS-02

NORAD 43441 · 2018-040C

PAYLOAD ACTIVE UNKNOWN

§ Identity

Operator
Country
PRC
Launch date
2018-04-26
Launch site
JSC
Launch vehicle
Mass (kg)
RCS (m²)

External: N2YO · Heavens-Above · Gunter

§ Orbital elements

Epoch: 2026-05-25T04:42:00.645984Z

Period
94.40 min
Inclination
97.0390°
Eccentricity
0.0007762
Mean motion
15.25492697 rev/d
Perigee alt
484.0 km
Apogee alt
494.6 km
Semi-major
6,867.4 km
B*
2.9344e-4
RAAN
170.7105°
Arg perigee
322.3622°
Mean anomaly
37.7073°
Rev number
11,077

§ Raw data

ZHUHAI-1 OHS-021 43441U 18040C   26145.19584081  .00007371  00000+0  29344-3 0  99952 43441  97.0390 170.7105 0007762 322.3622  37.7073 15.25492697110772

JSON: /api/v1/satellites/43441 · /tle

For live sub-satellite position, see the globe view (requires WebGL).

§ Visibility from observer

Set your observer location to see the next 7 days of passes ≥ 10°. The values pass through the URL so the page stays shareable.

No JS? Fill the form by hand. The geolocation button needs JavaScript.

§ Radio — SatNOGS DB

ModeDescriptionDownlinkUplink
FSK Downlink 401.560 MHz
BPSK Telemetry 2.254 GHz

2 transmitters · refreshed weekly from db.satnogs.org